Location: Unspecified
(0.0000°N, 0.0000°E)
Time: 17:26:45
(UTC+00:00)

THORAD DELTA 1 DEB - Pass Details

Date: 20 February 2026
Orbit: 1442 x 1568 km, 101.4° (Epoch: 22 February)

Event Time Altitude Azimuth Distance (km) Brightness Sun altitude
Exits shadow 22:19:58 17° 249° (WSW) 3,263 ? -59.8°
Drops below altitude 10° 22:22:11 10° 237° (WSW) 3,752 ? -60.3°
Sets 22:25:48 0° 224° (SW) 4,728 ? -61.2°
